Regional Weather Roundup
Issued by NWS

Home | Current Version | Previous Version | Text Only | Print | Product List | Glossary On
Versions: 1 2 3 4 5 6 7 8 9 10 11 12 13 14 15 16 17 18 19 20 21 22 23 24 25 26 27 28 29 30 31 32 33 34 35 36 37 38 39 40 41 42 43 44 45 46 47 48 49 50
000
ASUS43 KDTX 301310
RWRMI
MICHIGAN HOURLY REGIONAL WEATHER ROUNDUP
NATIONAL WEATHER SERVICE DETROIT/PONTIAC MI
900 AM EDT SUN AUG 30 2015

NOTE: "FAIR" INDICATES FEW OR NO CLOUDS BELOW 12,000 FEET WITH NO
SIGNIFICANT WEATHER AND/OR OBSTRUCTION TO VISIBILITY.

MIZ047>049-052>055-059>063-066>070-074>076-081>083-301400-
SOUTHEAST LOWER MICHIGAN

CITY           SKY/WX    TMP DP  RH WIND       PRES   REMARKS
ADRIAN         CLOUDY    68  66  93 CALM      30.08S FOG
ALMA           CLOUDY    65  65  99 CALM      30.08R FOG
ANN ARBOR      CLOUDY    68  65  90 CALM      30.08R FOG
BAD AXE        CLOUDY    65  64  95 CALM      30.08S FOG
CARO           CLOUDY    65  65  97 CALM      30.07S FOG
DETROIT CITY   CLOUDY    71  67  87 S3        30.08R
DETROIT        CLOUDY    70  68  93 S5        30.08S FOG
FLINT          CLOUDY    70  66  87 CALM      30.08R FOG
GROSSE ILE     CLOUDY    72  66  83 S8        30.07R
HILLSDALE      CLOUDY    68  68 100 CALM      30.09S FOG
HOWELL         CLOUDY    67  66  97 S3        30.08R FOG

CITY           SKY/WX    TMP DP  RH WIND       PRES   REMARKS
JACKSON        CLOUDY    68  66  93 CALM      30.08R FOG
LAMBERTVILLE   CLOUDY    71  68  91 CALM      30.08S FOG
LANSING        CLOUDY    67  65  93 SW5       30.08R FOG
LAPEER         CLOUDY    66  66  99 CALM      30.08S FOG
MASON          CLOUDY    67  64  89 S3        30.08S FOG
MONROE         CLOUDY    70  67  92 S5        30.07S
MT. CLEMENS    PTSUNNY   68  68  98 CALM      30.06S
PONTIAC        CLOUDY    67  67 100 CALM      30.08R FOG
PORT HOPE        N/A     68  65  90 E3        30.07R
PORT HURON     CLOUDY    66  66 100 CALM      30.09R FOG
TRI CITIES     CLOUDY    67  64  90 E3        30.07S FOG
MIDLAND        CLOUDY    66  64  94 CALM      30.07R FOG
TROY           CLOUDY    68  67  96 CALM      30.10R FOG
SAGINAW HB     CLOUDY    64  64 100 CALM      30.06S FOG
$$
MIZ043>046-050>051-056>058-064>065-071>073-077>080-301400-
SOUTHWEST LOWER MICHIGAN

CITY           SKY/WX    TMP DP  RH WIND       PRES   REMARKS
BATTLE CREEK   FOG       67  66  97 S6        30.08R VSB 1/4
BENTON HARBOR  CLOUDY    69  66  90 CALM      30.06S FOG
BIG RAPIDS     CLOUDY    64  63  97 CALM      30.08R FOG
COLDWATER      CLOUDY    67  67  99 CALM      30.08S FOG
FREMONT        CLOUDY    64  64 100 CALM      30.06S FOG
HOLLAND        FOG       68  66  93 CALM      30.06R VSB 1/4
GRAND RAPIDS   CLOUDY    66  66 100 E5        30.06R FOG
IONIA          FOG       66  66 100 CALM      30.06S VSB 1/4
KALAMAZOO      FOG       68  66  93 S3        30.07R VSB 1/2
LUDINGTON      PTSUNNY   66  64  92 CALM      30.08S
MARSHALL       CLOUDY    68  66  94 SW3       30.07S FOG
MOUNT PLEASANT CLOUDY    66  64  93 CALM      30.07R FOG
MUSKEGON       CLOUDY    66  63  90 NE3       30.07R FOG
SOUTH HAVEN    CLOUDY    67  66  96 CALM      30.06R FOG
$$
MIZ016>042-301400-
NORTHERN LOWER MICHIGAN

CITY           SKY/WX    TMP DP  RH WIND       PRES   REMARKS
ALPENA         SUNNY     60  58  92 CALM      30.09R
BEAVER ISLAND  SUNNY     65  62  90 SW5       30.06R
BELLAIRE       FOG       58  57  96 CALM      30.08S VSB<1/4
CADILLAC       FOG       60  59  99 CALM      30.08S VSB 1/4
CHARLEVOIX     PTSUNNY   61  61 100 CALM      30.09S FOG
FRANKFORT      CLOUDY    61  60  97 CALM      30.08R FOG
GAYLORD        CLOUDY    58  58 100 S3        30.09S FOG
GRAYLING       FOG       55  54  99 CALM      30.10S VSB<1/4
HARBOR SPRINGS FOG       59  58  99 CALM      30.08S VSB<1/4
HOUGHTON LAKE  CLOUDY    59  58  96 CALM      30.10R
MANISTEE       PTSUNNY   61  55  82 CALM      30.09R
OSCODA         MOSUNNY   61  61  98 NW5       30.08R
PELLSTON       CLOUDY    57  56  96 CALM      30.08R
ROGERS CITY    SUNNY     64  61  92 CALM      30.08S
TRAVERSE CITY  PTSUNNY   62  58  86 SE3       30.07S FOG
$$
MIZ007>008-015-301400-
EASTERN UPPER MICHIGAN

CITY           SKY/WX    TMP DP  RH WIND       PRES   REMARKS
KINROSS        CLOUDY    61  61 100 S5        30.05S VSB 1/2
MACKINAC ISLAN CLOUDY    63  62  96 S3        30.06R FOG
NEWBERRY       PTSUNNY   62  62  99 SW8       30.02F FOG
S. S. MARIE    CLOUDY    61  60  97 S5        30.04F FOG
MUNISING         N/A     66  60  81 S8        30.00S
$$
MIZ004>006-011>014-085-301400-
CENTRAL UPPER MICHIGAN

CITY           SKY/WX    TMP DP  RH WIND       PRES   REMARKS
MANISTIQUE     SUNNY     63  62  94 S6        30.03S FOG
ESCANABA       SUNNY     61  57  88 SW6       30.03S
MENOMINEE      SUNNY     61  57  88 SW6       30.05S
SAWYER-GWINN   FOG       59  57  94 SW5       30.03S VSB 1/4
$$
MIZ001>003-009>011-084-301400-
WESTERN UPPER MICHIGAN

CITY           SKY/WX    TMP DP  RH WIND       PRES   REMARKS
IRONWOOD       PTSUNNY   63  61  94 SW9       29.96F
$$

ABBREVIATIONS USED IN REMARKS
   TC - TEMPERATURE IN CELSIUS
  WCI - WIND CHILL INDEX
   HX - HEAT INDEX
  VSB - VISIBILITY



USA.gov is the U.S. government's official web portal to all federal, state and local government web resources and services.